Content
SEND FEEDBACK

Daily
Averages
Monthly
Summary
Thailand

SONGKHLA, THAILAND


Home > Asia > Thailand
Elevation: 16 feet     Latitude: 07 12N     Longitude: 100 36E

WEATHER
 
SELECT A DAY
Number of Records: 237,042;   Date Range: 7/1/96 - 8/12/14
 
SHARE

PRINT THIS DATA

[ ← Previous Day ]
WEATHER ALMANAC - JANUARY 31, 2013
[ Next Day → ]
[ °C ]   °F
Weather ElementAverageHighLow
Temperature81.1 °F89.6 °F (2:30 pm)73.4 °F (2:30 am)
Dewpoint71.9 °F73.4 °F (8:00 am)69.8 °F (2:30 am)
Humidity74 %89 % (12:30 am)50 % (1:00 pm)
Barometer29.92 in29.95 in (12:30 am)29.86 in (3:00 pm)
Wind Speed6.1 mph17.3 mph (6:00 pm)
Weather ElementAverage
Visibility6.2 mi
Wind DirectionESE (99.6 °)

Weather ElementTotal
Precipitation---
Cooling Degree Days16.5 (Base 65)
Growing Degree Days31.5 (Base 50)
Averaged from 51 records on January 31, 2013
WEATHER CONDITIONS BREAKOUT
WIND DIRECTION BREAKOUT
WEATHER BY HOUR - JANUARY 31, 2013
[ °C ]   °F
Local TimeTemperatureDewpointHumidityBarometerVisibilityWind DirectionWind SpeedGust SpeedPrecipitationEventsConditions
12:30 AM75.2 °F71.6 °F89 %29.95 in6.2 miWest (260°)4.6 mphMostly Cloudy
1:00 AM75.0 °F71.0 °F83 %29.94 in6.0 miWNW (300°)3.5 mphScattered Clouds
1:00 AM75.2 °F71.6 °F89 %29.95 in6.2 miWNW (300°)3.5 mphMostly Cloudy
1:30 AM75.2 °F71.6 °F89 %29.92 in6.2 miCalmMostly Cloudy
2:00 AM75.2 °F71.6 °F89 %29.92 in6.2 miCalmMostly Cloudy
2:30 AM73.4 °F69.8 °F88 %29.92 in6.2 miCalmMostly Cloudy
3:00 AM75.2 °F71.6 °F89 %29.92 in6.2 miWest (270°)5.8 mphMostly Cloudy
3:30 AM75.2 °F71.6 °F89 %29.92 in6.2 miWest (280°)3.5 mphMostly Cloudy
4:00 AM77.0 °F71.6 °F83 %29.89 in6.2 miCalmMostly Cloudy
4:30 AM75.2 °F71.6 °F89 %29.92 in6.2 miWNW (290°)3.5 mphMostly Cloudy
5:00 AM77.0 °F71.6 °F83 %29.92 in6.2 miWNW (300°)4.6 mphMostly Cloudy
5:30 AM77.0 °F71.6 °F83 %29.92 in6.2 miNNW (330°)4.6 mphMostly Cloudy
6:00 AM75.2 °F71.6 °F89 %29.92 in6.2 miNNW (330°)2.3 mphMostly Cloudy
6:30 AM75.2 °F71.6 °F89 %29.92 in6.2 miCalmMostly Cloudy
7:00 AM76.0 °F71.0 °F82 %29.93 in6.0 miNNW (330°)2.3 mphScattered Clouds
7:00 AM75.2 °F71.6 °F89 %29.92 in6.2 miCalmMostly Cloudy
7:30 AM77.0 °F71.6 °F83 %29.95 in6.2 miCalmScattered Clouds
8:00 AM80.6 °F73.4 °F79 %29.95 in6.2 miCalmScattered Clouds
8:30 AM82.4 °F71.6 °F70 %29.95 in6.2 miNE (50°)3.5 mphScattered Clouds
9:00 AM82.4 °F71.6 °F70 %29.95 in6.2 miNE (40°)5.8 mphMostly Cloudy
9:30 AM84.2 °F73.4 °F70 %29.95 in6.2 miEast (90°)4.6 mphMostly Cloudy
10:00 AM84.2 °F73.4 °F70 %29.95 in6.2 miENE (60°)6.9 mphMostly Cloudy
10:30 AM87.8 °F71.6 °F58 %29.95 in6.2 miEast (90°)11.5 mphMostly Cloudy
11:00 AM84.2 °F71.6 °F66 %29.95 in6.2 miENE (70°)6.9 mphMostly Cloudy
11:30 AM87.8 °F71.6 °F58 %29.95 in6.2 miNE (40°)4.6 mphMostly Cloudy
12:00 PM87.8 °F71.6 °F58 %29.92 in6.2 miENE (70°)6.9 mphMostly Cloudy
12:30 PM87.8 °F71.6 °F58 %29.92 in6.2 miENE (60°)10.4 mphMostly Cloudy
1:00 PM89.0 °F73.0 °F50 %29.90 in6.0 miENE (60°)8.1 mphScattered Clouds
1:00 PM87.8 °F71.6 °F58 %29.89 in6.2 miEast (80°)10.4 mphMostly Cloudy
1:30 PM87.8 °F71.6 °F58 %29.89 in6.2 miNE (50°)12.7 mphMostly Cloudy
2:00 PM87.8 °F73.4 °F62 %29.89 in6.2 miEast (80°)8.1 mphMostly Cloudy
2:30 PM89.6 °F73.4 °F59 %29.89 in6.2 miNE (50°)11.5 mphMostly Cloudy
3:00 PM87.8 °F73.4 °F62 %29.86 in6.2 miNE (40°)12.7 mphMostly Cloudy
3:30 PM87.8 °F73.4 °F62 %29.86 in6.2 miENE (70°)10.4 mphMostly Cloudy
4:00 PM84.2 °F71.6 °F66 %29.86 in6.2 miENE (70°)9.2 mphMostly Cloudy
4:30 PM86.0 °F73.4 °F66 %29.86 in6.2 miENE (60°)12.7 mphMostly Cloudy
5:00 PM84.2 °F71.6 °F66 %29.86 in6.2 miNE (40°)11.5 mphMostly Cloudy
5:30 PM82.4 °F71.6 °F70 %29.89 in6.2 miNE (50°)13.8 mphMostly Cloudy
6:00 PM82.4 °F71.6 °F70 %29.89 in6.2 miENE (60°)17.3 mphMostly Cloudy
6:30 PM80.6 °F71.6 °F74 %29.89 in6.2 miNE (50°)10.4 mphMostly Cloudy
7:00 PM81.0 °F72.0 °F66 %29.90 in6.0 miNE (50°)6.9 mphScattered Clouds
7:00 PM80.6 °F71.6 °F74 %29.89 in6.2 miNE (50°)6.9 mphMostly Cloudy
7:30 PM80.6 °F71.6 °F74 %29.89 in6.2 miNE (50°)9.2 mphMostly Cloudy
8:00 PM80.6 °F71.6 °F74 %29.92 in6.2 miNE (40°)8.1 mphMostly Cloudy
8:30 PM80.6 °F71.6 °F74 %29.92 in6.2 miNE (40°)8.1 mphMostly Cloudy
9:00 PM80.6 °F71.6 °F74 %29.95 in6.2 miENE (60°)2.3 mphMostly Cloudy
9:30 PM80.6 °F71.6 °F74 %29.95 in6.2 miNorth (350°)2.3 mphMostly Cloudy
10:00 PM80.6 °F71.6 °F74 %29.95 in6.2 miNNE (30°)3.5 mphMostly Cloudy
10:30 PM80.6 °F73.4 °F79 %29.95 in6.2 miNNE (30°)4.6 mphMostly Cloudy
11:00 PM80.6 °F73.4 °F79 %29.95 in6.2 miNNE (20°)6.9 mphMostly Cloudy
11:30 PM78.8 °F71.6 °F78 %29.95 in6.2 miNE (40°)4.6 mphMostly Cloudy
Hourly data recorded from VTSS, located miles away from Songkhla, Thailand







STORIES FROM OUR PARTNERS